Location: Dappach
(48.9767°N, 9.6998°E)
Time: 21:39:22
(UTC+00:00)

COSMOS 2428 - Pass Details

Date: 16 August 2024
Orbit: 842 x 857 km, 70.9° (Epoch: 09 September)

Event Time Altitude Azimuth Distance (km) Brightness Sun altitude
Exits shadow 02:40:46 - 277° (W) 2,698 4.9 -14.0°
Reaches altitude 10° 02:41:39 10° 283° (WNW) 2,481 4.8 -13.9°
Maximum altitude 02:45:23 18° 324° (NW) 2,003 4.7 -13.5°
Drops below altitude 10° 02:49:08 10° 6° (N) 2,494 5.8 -13.0°
Sets 02:52:30 0° 25° (NNE) 3,437 7.1 -12.6°
